Location: ??????????
(44.2167°N, 135.5333°E)
Time: 13:44:42
(UTC+00:00)

Okean O Rocket - Pass Details

Date: 15 June 2025
Orbit: 615 x 635 km, 98.0° (Epoch: 16 July)

Event Time Altitude Azimuth Distance (km) Brightness Sun altitude
Exits shadow 12:19:25 - 199° (SSW) 2,539 4.4 -13.3°
Reaches altitude 10° 12:21:01 10° 209° (SSW) 1,973 3.9 -13.5°
Maximum altitude 12:24:34 25° 265° (W) 1,258 3.5 -13.8°
Drops below altitude 10° 12:28:07 10° 321° (NW) 1,986 5.6 -14.2°
Sets 12:30:39 0° 335° (NNW) 2,897 6.8 -14.5°
